, AK

(GMT )
Golovin

Weather History for PAGL - March, 2013

Change the Weather History Date:

Friday, March 15, 2013

  Actual Average Record
Temperature  
Mean Temperature 12 °F -  
Max Temperature 17 °F - - ()
Min Temperature 6 °F - - ()
Degree Days  
Heating Degree Days 54    
Moisture  
Dew Point 0 °F    
Average Humidity 57    
Maximum Humidity 73    
Minimum Humidity 41    
Precipitation  
Precipitation 0.18 in - - ()
Sea Level Pressure  
Sea Level Pressure 29.82 in    
Wind  
Wind Speed 23 mph (ENE)    
Max Wind Speed 38 mph    
Max Gust Speed 47 mph    
Visibility 8 miles    
Events      
T = Trace of Precipitation, MM = Missing Value Source: NWS Daily Summary

Daily Weather History Graph

Daily Weather History Graph

Search for Another Location

Airport or City:

Trip Planner

Search our weather history database for the weather conditions in past years. The results will help you decide how hot, cold, wet, or windy it might be!

Date:

Astronomy

Mar. 15, 2013 Rise Set
Actual Time 9:08 AM AKDT 8:54 PM AKDT
Civil Twilight 8:20 AM AKDT 9:42 PM AKDT
Nautical Twilight 7:23 AM AKDT 10:41 PM AKDT
Astronomical Twilight 6:19 AM AKDT 11:45 PM AKDT
Moon 9:27 AM AKDT (3/15) 1:54 AM AKDT (3/15)
Length of Visible Light 13h 21m
Length of Day
11h 45m
Waxing Crescent, 16% of the Moon is Illuminated
Mar 15
Waxing Crescent
Mar 19
First Quarter
Mar 27
Full
Apr 2
Last Quarter
Apr 10
New

Hourly Weather History & Observations

Time (AKDT) Temp. Windchill Dew Point Humidity Pressure Visibility Wind Dir Wind Speed Gust Speed Precip Events Conditions
12:16 AM 6.8 °F -14.3 °F -4.0 °F 61% 29.96 in 10.0 mi NE 23.0 mph 32.2 mph N/A   Clear
12:36 AM 8.6 °F -16.3 °F 1.4 °F 73% 29.93 in 2.5 mi ENE 38.0 mph 47.2 mph 0.02 in   Mostly Cloudy
12:56 AM 8.6 °F -13.8 °F -2.2 °F 62% 29.94 in 5.0 mi ENE 28.8 mph 39.1 mph 0.02 in   Mostly Cloudy
1:16 AM 8.6 °F -7.0 °F -5.8 °F 52% 29.98 in 10.0 mi North 12.7 mph 23.0 mph N/A   Overcast
1:36 AM 8.6 °F -14.1 °F 1.4 °F 73% 29.93 in 5.0 mi ENE 29.9 mph 39.1 mph N/A   Scattered Clouds
1:56 AM 8.6 °F -11.4 °F -2.2 °F 62% 29.94 in 5.0 mi NE 21.9 mph 36.8 mph 0.03 in   Partly Cloudy
2:16 AM 8.6 °F -11.4 °F -2.2 °F 62% 29.93 in 9.0 mi NE 21.9 mph 32.2 mph N/A   Scattered Clouds
2:36 AM 8.6 °F -12.7 °F -2.2 °F 62% 29.92 in 8.0 mi NE 25.3 mph 33.4 mph N/A   Scattered Clouds
2:56 AM 8.6 °F -15.1 °F -2.2 °F 62% 29.90 in 3.0 mi NE 33.4 mph 41.4 mph 0.02 in   Mostly Cloudy
3:16 AM 8.6 °F -15.1 °F -0.4 °F 67% 29.89 in 3.0 mi NE 33.4 mph 46.0 mph 0.04 in   Scattered Clouds
3:36 AM 8.6 °F -14.8 °F -0.4 °F 67% 29.88 in 3.0 mi NE 32.2 mph 41.4 mph 0.04 in   Clear
3:56 AM 8.6 °F -15.1 °F -0.4 °F 67% 29.88 in 3.0 mi ENE 33.4 mph 40.3 mph 0.04 in   Clear
4:16 AM 8.6 °F -15.1 °F -0.4 °F 67% 29.87 in 4.0 mi ENE 33.4 mph 42.6 mph 0.02 in   Clear
4:36 AM 8.6 °F -14.8 °F -0.4 °F 67% 29.87 in 4.0 mi ENE 32.2 mph 41.4 mph 0.02 in   Clear
4:56 AM 8.6 °F -15.1 °F -0.4 °F 67% 29.86 in 3.0 mi ENE 33.4 mph 44.9 mph 0.02 in   Clear
5:16 AM 8.6 °F -15.4 °F 1.4 °F 73% 29.84 in 2.5 mi ENE 34.5 mph 42.6 mph N/A   Clear
5:36 AM 8.6 °F -15.7 °F -0.4 °F 67% 29.83 in 2.5 mi ENE 35.7 mph 43.7 mph N/A   Clear
5:56 AM 8.6 °F -14.8 °F -0.4 °F 67% 29.83 in 4.0 mi ENE 32.2 mph 42.6 mph 0.02 in   Mostly Cloudy
6:16 AM 8.6 °F -12.3 °F 1.4 °F 73% 29.84 in 5.0 mi NE 24.2 mph 38.0 mph 0.03 in   Scattered Clouds
6:36 AM 10.4 °F -4.1 °F -2.2 °F 57% 29.87 in 10.0 mi NE 11.5 mph 27.6 mph 0.03 in   Partly Cloudy
6:56 AM 10.4 °F -4.8 °F -2.2 °F 57% 29.88 in 10.0 mi NNE 12.7 mph 21.9 mph 0.03 in   Mostly Cloudy
7:16 AM 10.4 °F -4.8 °F -0.4 °F 62% 29.87 in 10.0 mi North 12.7 mph 16.1 mph N/A   Overcast
7:36 AM 10.4 °F -4.8 °F -2.2 °F 57% 29.87 in 10.0 mi NNE 12.7 mph 21.9 mph N/A   Overcast
7:56 AM 10.4 °F -5.4 °F -2.2 °F 57% 29.88 in 10.0 mi NE 13.8 mph 20.7 mph N/A   Overcast
8:16 AM 10.4 °F -5.4 °F -2.2 °F 57% 29.87 in 10.0 mi East 13.8 mph 18.4 mph N/A   Overcast
8:36 AM 10.4 °F -9.5 °F -4.0 °F 52% 29.84 in 10.0 mi ENE 23.0 mph 31.1 mph N/A   Overcast
8:56 AM 8.6 °F -11.9 °F 1.4 °F 73% 29.83 in 7.0 mi ENE 23.0 mph 35.7 mph N/A   Partly Cloudy
9:16 AM 10.4 °F -6.6 °F -4.0 °F 52% 29.85 in 10.0 mi NE 16.1 mph 24.2 mph N/A   Partly Cloudy
9:36 AM 10.4 °F -5.4 °F -0.4 °F 62% 29.84 in 10.0 mi ENE 13.8 mph 20.7 mph N/A   Clear
9:56 AM 10.4 °F -6.0 °F -4.0 °F 52% 29.83 in 10.0 mi NE 15.0 mph 27.6 mph N/A   Mostly Cloudy
10:16 AM 10.4 °F -4.1 °F -0.4 °F 62% 29.83 in 10.0 mi NNE 11.5 mph 18.4 mph N/A   Mostly Cloudy
10:36 AM 10.4 °F -2.4 °F -2.2 °F 57% 29.84 in 10.0 mi NNW 9.2 mph - N/A   Scattered Clouds
10:56 AM 12.2 °F -1.8 °F -0.4 °F 57% 29.84 in 10.0 mi NNW 11.5 mph 16.1 mph N/A   Partly Cloudy
11:16 AM 12.2 °F -1.0 °F -2.2 °F 53% 29.83 in 10.0 mi North 10.4 mph 19.6 mph N/A   Clear
11:36 AM 12.2 °F -0.2 °F -2.2 °F 53% 29.82 in 10.0 mi NW 9.2 mph - N/A   Clear
11:56 AM 15.8 °F 0.9 °F -4.0 °F 41% 29.81 in 10.0 mi East 15.0 mph 36.8 mph N/A   Clear
12:16 PM 14.0 °F 5.1 °F -4.0 °F 45% 29.81 in 10.0 mi NE 5.8 mph - N/A   Clear
12:36 PM 14.0 °F 2.0 °F -0.4 °F 53% 29.81 in 10.0 mi WNW 9.2 mph 19.6 mph N/A   Clear
12:56 PM 15.8 °F 6.1 °F -2.2 °F 45% 29.80 in 10.0 mi North 6.9 mph 16.1 mph N/A   Clear
1:16 PM 14.0 °F 0.5 °F -0.4 °F 53% 29.80 in 10.0 mi North 11.5 mph 18.4 mph N/A   Clear
1:36 PM 14.0 °F 1.2 °F -2.2 °F 49% 29.79 in 10.0 mi NNW 10.4 mph 24.2 mph N/A   Clear
1:56 PM 15.8 °F 2.7 °F -0.4 °F 49% 29.77 in 10.0 mi NW 11.5 mph 16.1 mph N/A   Clear
2:16 PM 15.8 °F 3.4 °F -0.4 °F 49% 29.77 in 10.0 mi ENE 10.4 mph 23.0 mph N/A   Clear
2:36 PM 15.8 °F -4.4 °F -2.2 °F 45% 29.74 in 7.0 mi East 29.9 mph 39.1 mph N/A   Clear
2:56 PM 17.6 °F -1.3 °F 3.2 °F 53% 29.74 in 9.0 mi East 27.6 mph 36.8 mph N/A   Clear
3:16 PM 17.6 °F -1.3 °F 3.2 °F 53% 29.75 in 10.0 mi East 27.6 mph 36.8 mph N/A   Clear
3:36 PM 17.6 °F -0.6 °F -0.4 °F 45% 29.75 in 10.0 mi East 25.3 mph 32.2 mph N/A   Clear
3:56 PM 15.8 °F -4.1 °F 1.4 °F 53% 29.74 in 10.0 mi East 28.8 mph 34.5 mph N/A   Partly Cloudy
4:16 PM 17.6 °F -1.3 °F 1.4 °F 49% 29.74 in 10.0 mi East 27.6 mph 33.4 mph N/A   Mostly Cloudy
4:36 PM 15.8 °F -4.4 °F 3.2 °F 58% 29.72 in 10.0 mi ENE 29.9 mph 36.8 mph N/A   Overcast
4:56 PM 17.6 °F -0.3 °F 3.2 °F 53% 29.73 in 10.0 mi ENE 24.2 mph 34.5 mph N/A   Overcast
5:16 PM 17.6 °F -1.3 °F 1.4 °F 49% 29.73 in 10.0 mi East 27.6 mph 39.1 mph N/A   Overcast
5:36 PM 17.6 °F -0.3 °F 1.4 °F 49% 29.73 in 10.0 mi East 24.2 mph 27.6 mph N/A   Overcast
5:56 PM 17.6 °F -1.6 °F 1.4 °F 49% 29.72 in 10.0 mi East 28.8 mph 34.5 mph N/A   Scattered Clouds
6:16 PM 17.6 °F -1.0 °F -0.4 °F 45% 29.73 in 10.0 mi ENE 26.5 mph 33.4 mph N/A   Mostly Cloudy
6:36 PM 17.6 °F 0.1 °F 1.4 °F 49% 29.72 in 10.0 mi ENE 23.0 mph 29.9 mph N/A   Overcast
6:56 PM 17.6 °F 0.9 °F 1.4 °F 49% 29.73 in 10.0 mi East 20.7 mph 28.8 mph N/A   Overcast
7:16 PM 17.6 °F 1.3 °F 1.4 °F 49% 29.73 in 10.0 mi East 19.6 mph 26.5 mph N/A   Overcast
7:36 PM 17.6 °F 0.5 °F 1.4 °F 49% 29.73 in 10.0 mi East 21.9 mph 25.3 mph N/A   Overcast
7:56 PM 17.6 °F 4.3 °F 3.2 °F 53% 29.74 in 10.0 mi SE 12.7 mph 19.6 mph N/A   Overcast
8:16 PM 17.6 °F 0.9 °F 1.4 °F 49% 29.74 in 10.0 mi East 20.7 mph - N/A   Mostly Cloudy
8:36 PM 17.6 °F 0.5 °F -0.4 °F 45% 29.74 in 10.0 mi ESE 21.9 mph 28.8 mph N/A   Partly Cloudy
9:56 PM 17.6 °F 2.7 °F 6.8 °F 63% 29.75 in 10.0 mi SE 16.1 mph - N/A   Overcast
10:16 PM 17.6 °F 2.7 °F 3.2 °F 53% 29.76 in 10.0 mi SE 16.1 mph - N/A   Overcast
10:36 PM 17.6 °F 1.7 °F 5.0 °F 58% 29.77 in 10.0 mi SE 18.4 mph - N/A   Overcast
10:56 PM 17.6 °F 5.0 °F 10.4 °F 73% 29.77 in 10.0 mi SSE 11.5 mph - N/A   Overcast
11:16 PM 17.6 °F 1.3 °F 3.2 °F 53% 29.76 in 10.0 mi SE 19.6 mph 25.3 mph N/A   Overcast
11:36 PM 17.6 °F 1.3 °F 1.4 °F 49% 29.77 in 10.0 mi SE 19.6 mph 25.3 mph N/A   Overcast
11:56 PM 17.6 °F 3.2 °F 3.2 °F 53% 29.78 in 10.0 mi SE 15.0 mph 20.7 mph N/A   Overcast